Time,TemperatureF,DewpointF,PressureIn,WindDirection,WindDirectionDegrees,WindSpeedMPH,WindSpeedGustMPH,Humidity,HourlyPrecipIn,Conditions,Clouds,dailyrainin,SoftwareType,DateUTC
2013-03-17 00:00:00,17.2,7.5,29.92,SW,229,3.6,3.6,65,0.00,,CLR,0.00,VWS V14.01,2013-03-17 04:00:00,
2013-03-17 00:01:00,17.2,7.5,29.92,SW,229,3.1,3.6,65,0.00,,CLR,0.00,VWS V14.01,2013-03-17 04:01:00,
2013-03-17 00:02:00,17.2,7.5,29.92,SW,228,3.6,4.0,65,0.00,,CLR,0.00,VWS V14.01,2013-03-17 04:02:00,
2013-03-17 00:05:00,17.2,7.5,29.92,SW,228,3.1,4.5,65,0.00,,CLR,0.00,VWS V14.01,2013-03-17 04:05:00,
2013-03-17 00:10:00,17.1,7.3,29.92,SW,229,3.1,3.1,65,0.00,,CLR,0.00,VWS V14.01,2013-03-17 04:10:00,
2013-03-17 00:15:00,17.1,7.3,29.92,SW,230,2.7,3.6,65,0.00,,CLR,0.00,VWS V14.01,2013-03-17 04:15:00,
2013-03-17 00:20:00,17.1,7.7,29.92,SW,233,2.7,2.7,66,0.00,,CLR,0.00,VWS V14.01,2013-03-17 04:20:00,
2013-03-17 00:25:00,16.9,7.5,29.92,SW,234,0.0,2.7,66,0.00,,CLR,0.00,VWS V14.01,2013-03-17 04:25:00,
2013-03-17 00:30:00,17.4,8.0,29.92,SW,230,4.0,4.5,66,0.00,,CLR,0.00,VWS V14.01,2013-03-17 04:30:00,
2013-03-17 00:35:00,17.6,8.5,29.92,SW,230,4.9,5.4,67,0.00,,CLR,0.00,VWS V14.01,2013-03-17 04:35:00,
2013-03-17 00:40:00,17.4,8.4,29.92,SW,226,3.6,5.4,67,0.00,,CLR,0.00,VWS V14.01,2013-03-17 04:40:00,
2013-03-17 00:45:00,17.4,8.4,29.92,SW,230,2.2,4.5,67,0.00,,CLR,0.00,VWS V14.01,2013-03-17 04:45:00,
2013-03-17 00:50:00,17.2,8.2,29.92,SW,227,4.0,5.4,67,0.00,,CLR,0.00,VWS V14.01,2013-03-17 04:50:00,
2013-03-17 00:55:00,17.1,8.0,29.92,SW,227,4.9,4.9,67,0.00,,CLR,0.00,VWS V14.01,2013-03-17 04:55:00,
2013-03-17 01:01:00,17.1,8.0,29.92,SW,229,3.6,4.0,67,0.00,,FEW030,0.00,VWS V14.01,2013-03-17 05:01:00,
2013-03-17 01:06:00,17.1,8.3,29.92,SW,228,2.7,4.0,68,0.00,,FEW030,0.00,VWS V14.01,2013-03-17 05:06:00,
2013-03-17 01:11:00,17.1,8.3,29.92,SW,229,2.7,3.6,68,0.00,,FEW030,0.00,VWS V14.01,2013-03-17 05:11:00,
2013-03-17 01:17:00,17.1,8.0,29.92,SW,229,3.1,3.6,67,0.00,,FEW030,0.00,VWS V14.01,2013-03-17 05:17:00,
2013-03-17 01:22:00,17.1,8.0,29.92,SW,229,4.0,4.0,67,0.00,,FEW030,0.00,VWS V14.01,2013-03-17 05:22:00,
2013-03-17 01:27:00,17.1,8.3,29.92,SW,229,3.1,4.0,68,0.00,,FEW030,0.00,VWS V14.01,2013-03-17 05:27:00,
2013-03-17 01:32:00,17.1,8.0,29.92,SW,231,3.1,4.0,67,0.00,,FEW030,0.00,VWS V14.01,2013-03-17 05:32:00,
2013-03-17 01:37:00,17.1,8.3,29.95,SW,231,4.0,4.9,68,0.00,,FEW030,0.00,VWS V14.01,2013-03-17 05:37:00,
2013-03-17 01:42:00,17.1,8.3,29.95,SW,231,3.6,4.5,68,0.00,,FEW030,0.00,VWS V14.01,2013-03-17 05:42:00,
2013-03-17 01:47:00,17.1,8.3,29.95,SW,228,3.1,4.9,68,0.00,,FEW030,0.00,VWS V14.01,2013-03-17 05:47:00,
2013-03-17 01:52:00,17.1,8.3,29.95,SW,230,3.6,6.3,68,0.00,,FEW030,0.00,VWS V14.01,2013-03-17 05:52:00,
2013-03-17 01:57:00,17.2,8.5,29.95,SW,229,3.1,5.8,68,0.00,,FEW030,0.00,VWS V14.01,2013-03-17 05:57:00,
2013-03-17 02:02:00,17.2,8.5,29.95,SW,229,4.0,4.9,68,0.00,,FEW030,0.00,VWS V14.01,2013-03-17 06:02:00,
2013-03-17 02:08:00,17.4,9.0,29.95,SW,229,4.0,4.0,69,0.00,,FEW030,0.00,VWS V14.01,2013-03-17 06:08:00,
2013-03-17 02:13:00,17.4,9.0,29.95,SW,230,2.7,4.9,69,0.00,,FEW030,0.00,VWS V14.01,2013-03-17 06:13:00,
2013-03-17 02:18:00,17.4,8.7,29.95,SW,230,2.2,3.6,68,0.00,,FEW030,0.00,VWS V14.01,2013-03-17 06:18:00,
2013-03-17 02:23:00,17.4,8.7,29.95,SW,230,3.1,4.0,68,0.00,,FEW030,0.00,VWS V14.01,2013-03-17 06:23:00,
2013-03-17 02:28:00,17.4,8.7,29.95,SW,230,4.0,4.0,68,0.00,,FEW030,0.00,VWS V14.01,2013-03-17 06:28:00,
2013-03-17 02:33:00,17.4,8.7,29.95,SW,230,3.1,3.6,68,0.00,,BKN044,0.00,VWS V14.01,2013-03-17 06:33:00,
2013-03-17 02:38:00,17.4,8.7,29.95,SW,230,0.0,2.7,68,0.00,,BKN044,0.00,VWS V14.01,2013-03-17 06:38:00,
2013-03-17 02:43:00,17.4,8.7,29.95,SW,230,4.0,4.0,68,0.00,,BKN044,0.00,VWS V14.01,2013-03-17 06:43:00,
2013-03-17 02:48:00,17.4,8.7,29.95,SW,230,2.2,4.0,68,0.00,,BKN044,0.00,VWS V14.01,2013-03-17 06:48:00,
2013-03-17 02:53:00,17.8,9.0,29.95,SW,230,3.6,4.0,68,0.00,,BKN044,0.00,VWS V14.01,2013-03-17 06:53:00,
2013-03-17 02:58:00,17.8,9.4,29.95,SW,229,3.6,5.4,69,0.00,,BKN044,0.00,VWS V14.01,2013-03-17 06:58:00,
2013-03-17 03:03:00,18.0,9.5,29.95,SW,229,4.9,5.8,69,0.00,,BKN044,0.00,VWS V14.01,2013-03-17 07:03:00,
2013-03-17 03:09:00,18.3,10.2,29.95,SW,229,4.0,4.9,70,0.00,,BKN044,0.00,VWS V14.01,2013-03-17 07:09:00,
2013-03-17 03:14:00,18.5,10.4,29.95,SW,229,3.6,4.0,70,0.00,,BKN044,0.00,VWS V14.01,2013-03-17 07:14:00,
2013-03-17 03:19:00,18.7,10.9,29.95,WSW,247,3.1,5.4,71,0.00,,BKN044,0.00,VWS V14.01,2013-03-17 07:19:00,
2013-03-17 03:24:00,18.7,10.9,29.95,WSW,248,3.1,4.9,71,0.00,,BKN044,0.00,VWS V14.01,2013-03-17 07:24:00,
2013-03-17 03:29:00,18.7,10.9,29.95,SW,227,3.6,5.4,71,0.00,,BKN044,0.00,VWS V14.01,2013-03-17 07:29:00,
2013-03-17 03:34:00,18.7,10.5,29.95,SW,228,2.7,4.0,70,0.00,,,0.00,VWS V14.01,2013-03-17 07:34:00,
2013-03-17 03:39:00,18.7,10.5,29.95,SW,229,2.7,5.4,70,0.00,,,0.00,VWS V14.01,2013-03-17 07:39:00,
2013-03-17 03:44:00,19.0,11.2,29.95,SW,224,0.0,4.0,71,0.00,,,0.00,VWS V14.01,2013-03-17 07:44:00,
2013-03-17 03:49:00,19.2,11.4,29.95,WSW,239,3.1,5.4,71,0.00,,,0.00,VWS V14.01,2013-03-17 07:49:00,
2013-03-17 03:54:00,19.4,11.6,29.95,West,259,2.7,5.4,71,0.00,,,0.00,VWS V14.01,2013-03-17 07:54:00,
2013-03-17 03:59:00,19.4,11.6,29.95,WSW,251,2.7,5.4,71,0.00,,,0.00,VWS V14.01,2013-03-17 07:59:00,
2013-03-17 04:04:00,19.6,11.7,29.95,WSW,241,2.2,5.4,71,0.00,,,0.00,VWS V14.01,2013-03-17 08:04:00,
2013-03-17 04:09:00,19.8,12.2,29.95,West,260,4.0,4.9,72,0.00,,,0.00,VWS V14.01,2013-03-17 08:09:00,
2013-03-17 04:14:00,19.8,12.2,29.95,WSW,242,2.2,5.4,72,0.00,,,0.00,VWS V14.01,2013-03-17 08:14:00,
2013-03-17 04:19:00,19.9,12.7,29.95,WSW,244,4.0,5.4,73,0.00,,,0.00,VWS V14.01,2013-03-17 08:19:00,
2013-03-17 04:24:00,19.9,12.7,29.95,WSW,245,0.0,4.0,73,0.00,,,0.00,VWS V14.01,2013-03-17 08:24:00,
2013-03-17 04:29:00,20.1,13.2,29.95,SW,236,2.7,4.9,74,0.00,,,0.00,VWS V14.01,2013-03-17 08:29:00,
2013-03-17 04:34:00,20.1,13.2,29.95,WSW,239,0.0,4.0,74,0.00,,,0.00,VWS V14.01,2013-03-17 08:34:00,
2013-03-17 04:39:00,20.1,13.5,29.95,WNW,282,3.6,8.1,75,0.00,,,0.00,VWS V14.01,2013-03-17 08:39:00,
2013-03-17 04:45:00,20.3,13.7,29.95,West,264,2.2,4.9,75,0.00,,,0.00,VWS V14.01,2013-03-17 08:45:00,
2013-03-17 04:50:00,20.3,14.0,29.95,WSW,253,2.2,5.4,76,0.00,,,0.00,VWS V14.01,2013-03-17 08:50:00,
2013-03-17 04:55:00,20.3,14.0,29.95,WSW,247,3.1,4.9,76,0.00,,,0.00,VWS V14.01,2013-03-17 08:55:00,
2013-03-17 05:00:00,20.5,14.1,29.95,West,261,3.1,4.9,76,0.00,,,0.00,VWS V14.01,2013-03-17 09:00:00,
2013-03-17 05:05:00,20.5,14.1,29.98,West,276,0.0,4.9,76,0.00,,,0.00,VWS V14.01,2013-03-17 09:05:00,
2013-03-17 05:10:00,20.5,14.1,29.98,West,276,3.1,3.1,76,0.00,,,0.00,VWS V14.01,2013-03-17 09:10:00,
2013-03-17 05:15:00,20.7,14.6,29.98,West,276,0.0,0.0,77,0.00,,,0.00,VWS V14.01,2013-03-17 09:15:00,
2013-03-17 05:20:00,20.8,14.8,29.98,West,276,0.0,0.0,77,0.00,,,0.00,VWS V14.01,2013-03-17 09:20:00,
2013-03-17 05:25:00,20.8,14.8,29.98,West,276,0.0,0.0,77,0.00,,,0.00,VWS V14.01,2013-03-17 09:25:00,
2013-03-17 05:30:00,21.0,14.9,29.98,West,276,0.0,0.0,77,0.00,,,0.00,VWS V14.01,2013-03-17 09:30:00,
2013-03-17 05:35:00,21.2,15.1,29.98,West,276,0.0,0.0,77,0.00,,,0.00,VWS V14.01,2013-03-17 09:35:00,
2013-03-17 05:40:00,21.2,15.1,29.98,West,276,0.0,0.0,77,0.00,,,0.00,VWS V14.01,2013-03-17 09:40:00,
2013-03-17 05:45:00,21.2,15.1,29.98,West,276,0.0,3.1,77,0.00,,,0.00,VWS V14.01,2013-03-17 09:45:00,
2013-03-17 05:50:00,21.2,15.1,29.98,West,276,2.7,2.7,77,0.00,,,0.00,VWS V14.01,2013-03-17 09:50:00,
2013-03-17 05:56:00,21.2,15.1,29.98,West,276,0.0,4.0,77,0.00,,,0.00,VWS V14.01,2013-03-17 09:56:00,
2013-03-17 06:01:00,21.4,15.0,29.98,West,276,0.0,0.0,76,0.00,,,0.00,VWS V14.01,2013-03-17 10:01:00,
2013-03-17 06:06:00,21.4,15.0,29.98,West,276,0.0,0.0,76,0.00,,,0.00,VWS V14.01,2013-03-17 10:06:00,
2013-03-17 06:12:00,21.4,15.0,29.98,West,276,0.0,0.0,76,0.00,,,0.00,VWS V14.01,2013-03-17 10:12:00,
2013-03-17 06:17:00,21.6,15.2,29.98,West,276,0.0,0.0,76,0.00,,,0.00,VWS V14.01,2013-03-17 10:17:00,
2013-03-17 06:22:00,21.6,15.2,30.01,West,276,2.2,2.2,76,0.00,,,0.00,VWS V14.01,2013-03-17 10:22:00,
2013-03-17 06:27:00,21.6,15.2,30.01,West,276,2.7,3.6,76,0.00,,,0.00,VWS V14.01,2013-03-17 10:27:00,
2013-03-17 06:32:00,21.6,15.2,30.01,West,276,0.0,3.1,76,0.00,,,0.00,VWS V14.01,2013-03-17 10:32:00,
2013-03-17 06:37:00,21.4,15.0,30.01,West,276,0.0,0.0,76,0.00,,,0.00,VWS V14.01,2013-03-17 10:37:00,
2013-03-17 06:42:00,21.0,14.7,30.01,West,276,0.0,0.0,76,0.00,,,0.00,VWS V14.01,2013-03-17 10:42:00,
2013-03-17 06:48:00,20.8,14.2,30.01,West,276,0.0,0.0,75,0.00,,,0.00,VWS V14.01,2013-03-17 10:48:00,
2013-03-17 06:53:00,20.3,13.4,30.01,West,276,0.0,0.0,74,0.00,,,0.00,VWS V14.01,2013-03-17 10:53:00,
2013-03-17 06:58:00,19.9,12.7,30.01,West,276,0.0,0.0,73,0.00,,,0.00,VWS V14.01,2013-03-17 10:58:00,
2013-03-17 07:03:00,19.8,12.2,30.01,West,276,0.0,0.0,72,0.00,,OVC055,0.00,VWS V14.01,2013-03-17 11:03:00,
2013-03-17 07:08:00,19.6,12.0,30.01,West,276,0.0,0.0,72,0.00,,OVC055,0.00,VWS V14.01,2013-03-17 11:08:00,
2013-03-17 07:13:00,19.2,11.4,30.01,West,276,0.0,0.0,71,0.00,,OVC055,0.00,VWS V14.01,2013-03-17 11:13:00,
2013-03-17 07:18:00,19.0,11.2,30.01,West,276,0.0,0.0,71,0.00,,OVC055,0.00,VWS V14.01,2013-03-17 11:18:00,
2013-03-17 07:23:00,18.7,10.5,30.01,West,276,0.0,0.0,70,0.00,,OVC055,0.00,VWS V14.01,2013-03-17 11:23:00,
2013-03-17 07:28:00,18.3,10.2,30.01,West,276,0.0,0.0,70,0.00,,OVC055,0.00,VWS V14.01,2013-03-17 11:28:00,
2013-03-17 07:33:00,18.3,10.2,30.01,West,276,0.0,0.0,70,0.00,,OVC055,0.00,VWS V14.01,2013-03-17 11:33:00,
2013-03-17 07:38:00,17.2,8.8,30.04,West,276,0.0,0.0,69,0.00,,OVC055,0.00,VWS V14.01,2013-03-17 11:38:00,
2013-03-17 07:43:00,17.8,9.0,30.04,West,276,0.0,2.7,68,0.00,,OVC055,0.00,VWS V14.01,2013-03-17 11:43:00,
2013-03-17 07:49:00,18.3,9.9,30.04,West,276,0.0,0.0,69,0.00,,OVC055,0.00,VWS V14.01,2013-03-17 11:49:00,
2013-03-17 07:54:00,18.3,9.9,30.04,West,276,0.0,0.0,69,0.00,,OVC055,0.00,VWS V14.01,2013-03-17 11:54:00,
2013-03-17 07:59:00,18.1,9.7,30.04,West,276,0.0,0.0,69,0.00,,OVC055,0.00,VWS V14.01,2013-03-17 11:59:00,
2013-03-17 08:04:00,17.4,8.7,30.04,West,276,0.0,0.0,68,0.00,,OVC055,0.00,VWS V14.01,2013-03-17 12:04:00,
2013-03-17 08:09:00,17.6,8.9,30.04,West,276,0.0,0.0,68,0.00,,OVC055,0.00,VWS V14.01,2013-03-17 12:09:00,
2013-03-17 08:14:00,18.3,9.9,30.04,West,276,0.0,0.0,69,0.00,,OVC055,0.00,VWS V14.01,2013-03-17 12:14:00,
2013-03-17 08:19:00,18.5,10.0,30.04,West,276,0.0,0.0,69,0.00,,OVC055,0.00,VWS V14.01,2013-03-17 12:19:00,
2013-03-17 08:24:00,18.7,10.5,30.04,West,276,0.0,0.0,70,0.00,,OVC055,0.00,VWS V14.01,2013-03-17 12:24:00,
2013-03-17 08:29:00,19.0,10.9,30.04,West,276,0.0,0.0,70,0.00,,OVC055,0.00,VWS V14.01,2013-03-17 12:29:00,
2013-03-17 08:34:00,19.2,11.4,30.04,West,276,3.1,3.1,71,0.00,,BKN055,0.00,VWS V14.01,2013-03-17 12:34:00,
2013-03-17 08:39:00,19.6,12.0,30.04,SW,222,3.1,4.5,72,0.00,,BKN055,0.00,VWS V14.01,2013-03-17 12:39:00,
2013-03-17 08:44:00,20.3,13.0,30.04,SW,225,2.7,4.0,73,0.00,,BKN055,0.00,VWS V14.01,2013-03-17 12:44:00,
2013-03-17 08:49:00,20.5,13.5,30.04,West,261,3.6,4.0,74,0.00,,BKN055,0.00,VWS V14.01,2013-03-17 12:49:00,
2013-03-17 08:54:00,20.8,14.2,30.07,SW,230,2.7,5.4,75,0.00,,BKN055,0.00,VWS V14.01,2013-03-17 12:54:00,
2013-03-17 08:59:00,21.2,14.8,30.07,WSW,239,4.9,6.3,76,0.00,,BKN055,0.00,VWS V14.01,2013-03-17 12:59:00,
2013-03-17 09:04:00,21.6,15.2,30.07,WSW,247,3.6,4.0,76,0.00,,SCT270,0.00,VWS V14.01,2013-03-17 13:04:00,
2013-03-17 09:10:00,21.9,15.5,30.07,WNW,291,7.6,7.6,76,0.00,,SCT270,0.00,VWS V14.01,2013-03-17 13:10:00,
2013-03-17 09:15:00,22.1,15.7,30.07,WNW,284,4.9,6.3,76,0.00,,SCT270,0.00,VWS V14.01,2013-03-17 13:15:00,
2013-03-17 09:20:00,22.5,16.0,30.07,WNW,290,5.8,6.3,76,0.00,,SCT270,0.00,VWS V14.01,2013-03-17 13:20:00,
2013-03-17 09:25:00,22.6,15.9,30.07,WSW,255,5.8,5.8,75,0.00,,SCT270,0.00,VWS V14.01,2013-03-17 13:25:00,
2013-03-17 09:30:00,22.8,16.1,30.07,NW,305,5.4,6.3,75,0.00,,SCT270,0.00,VWS V14.01,2013-03-17 13:30:00,
2013-03-17 09:35:00,23.2,16.1,30.07,WNW,299,5.8,8.1,74,0.00,,SCT270,0.00,VWS V14.01,2013-03-17 13:35:00,
2013-03-17 09:40:00,23.4,16.0,30.10,WSW,248,6.3,8.1,73,0.00,,SCT270,0.00,VWS V14.01,2013-03-17 13:40:00,
2013-03-17 09:45:00,23.7,16.0,30.10,West,275,2.7,6.3,72,0.00,,SCT270,0.00,VWS V14.01,2013-03-17 13:45:00,
2013-03-17 09:50:00,24.1,16.0,30.10,NW,317,6.3,7.6,71,0.00,,SCT270,0.00,VWS V14.01,2013-03-17 13:50:00,
2013-03-17 09:55:00,24.4,15.7,30.10,West,275,3.1,5.4,69,0.00,,SCT270,0.00,VWS V14.01,2013-03-17 13:55:00,
2013-03-17 10:00:00,24.6,15.2,30.10,WSW,241,6.3,10.1,67,0.00,,SCT270,0.00,VWS V14.01,2013-03-17 14:00:00,
2013-03-17 10:05:00,25.0,14.5,30.10,NW,312,8.1,8.7,64,0.00,,SCT270,0.00,VWS V14.01,2013-03-17 14:05:00,
2013-03-17 10:10:00,25.3,15.2,30.10,West,260,9.6,9.6,65,0.00,,SCT270,0.00,VWS V14.01,2013-03-17 14:10:00,
2013-03-17 10:15:00,25.5,15.1,30.10,NW,305,4.0,6.3,64,0.00,,SCT270,0.00,VWS V14.01,2013-03-17 14:15:00,
2013-03-17 10:20:00,25.3,14.2,30.07,NW,323,7.6,8.3,62,0.00,,SCT270,0.00,VWS V14.01,2013-03-17 14:20:00,
2013-03-17 10:25:00,25.9,15.0,30.07,NW,319,7.2,7.2,63,0.00,,SCT270,0.00,VWS V14.01,2013-03-17 14:25:00,
2013-03-17 10:30:00,25.5,14.0,30.07,NW,312,7.2,7.6,61,0.00,,SCT270,0.00,VWS V14.01,2013-03-17 14:30:00,
2013-03-17 10:36:00,25.7,14.1,30.10,NNW,327,4.9,11.0,61,0.00,,SCT270,0.00,VWS V14.01,2013-03-17 14:36:00,
2013-03-17 10:41:00,26.1,14.1,30.10,NNW,337,5.4,12.3,60,0.00,,SCT270,0.00,VWS V14.01,2013-03-17 14:41:00,
2013-03-17 10:46:00,26.1,13.7,30.10,NW,311,12.8,14.5,59,0.00,,SCT270,0.00,VWS V14.01,2013-03-17 14:46:00,
2013-03-17 10:51:00,25.7,12.2,30.10,WNW,284,8.1,15.4,56,0.00,,SCT270,0.00,VWS V14.01,2013-03-17 14:51:00,
2013-03-17 10:56:00,26.2,13.9,30.10,North,0,8.1,8.3,59,0.00,,SCT270,0.00,VWS V14.01,2013-03-17 14:56:00,
2013-03-17 11:01:00,26.2,14.3,30.10,North,0,6.7,8.3,60,0.00,,SCT270,0.00,VWS V14.01,2013-03-17 15:01:00,
2013-03-17 11:06:00,26.1,14.8,30.10,North,353,5.4,5.4,62,0.00,,SCT270,0.00,VWS V14.01,2013-03-17 15:06:00,
2013-03-17 11:11:00,25.5,14.3,30.10,NNW,327,7.6,8.3,62,0.00,,SCT270,0.00,VWS V14.01,2013-03-17 15:11:00,
2013-03-17 11:17:00,26.2,14.6,30.10,NW,323,8.1,11.0,61,0.00,,SCT270,0.00,VWS V14.01,2013-03-17 15:17:00,
2013-03-17 11:22:00,27.5,15.8,30.13,NNW,335,5.8,6.3,61,0.00,,SCT270,0.00,VWS V14.01,2013-03-17 15:22:00,
2013-03-17 11:27:00,27.5,14.3,30.13,NW,319,8.1,11.0,57,0.00,,SCT270,0.00,VWS V14.01,2013-03-17 15:27:00,
2013-03-17 11:33:00,27.1,13.5,30.13,NNW,343,8.7,12.3,56,0.00,,SCT270,0.00,VWS V14.01,2013-03-17 15:33:00,
2013-03-17 11:38:00,27.1,15.9,30.13,North,5,11.0,11.0,62,0.00,,SCT270,0.00,VWS V14.01,2013-03-17 15:38:00,
2013-03-17 11:43:00,26.4,15.9,30.13,North,357,7.2,13.2,64,0.00,,SCT270,0.00,VWS V14.01,2013-03-17 15:43:00,
2013-03-17 11:48:00,26.4,16.6,30.13,NNW,336,6.3,7.6,66,0.00,,SCT270,0.00,VWS V14.01,2013-03-17 15:48:00,
2013-03-17 11:53:00,26.1,15.6,30.13,North,3,5.4,8.7,64,0.00,,SCT270,0.00,VWS V14.01,2013-03-17 15:53:00,
2013-03-17 11:58:00,26.1,15.2,30.13,NW,315,6.3,8.7,63,0.00,,SCT270,0.00,VWS V14.01,2013-03-17 15:58:00,
2013-03-17 12:03:00,27.5,16.9,30.13,NNW,338,8.3,8.3,64,0.00,,SCT270,0.00,VWS V14.01,2013-03-17 16:03:00,
2013-03-17 12:08:00,27.1,16.6,30.13,NW,316,10.1,12.8,64,0.00,,SCT270,0.00,VWS V14.01,2013-03-17 16:08:00,
2013-03-17 12:13:00,26.6,16.1,30.13,WNW,302,8.3,10.5,64,0.00,,SCT270,0.00,VWS V14.01,2013-03-17 16:13:00,
2013-03-17 12:18:00,26.4,15.6,30.13,WNW,292,6.3,10.1,63,0.00,,SCT270,0.00,VWS V14.01,2013-03-17 16:18:00,
2013-03-17 12:23:00,26.6,13.8,30.16,NW,313,10.5,12.8,58,0.00,,SCT270,0.00,VWS V14.01,2013-03-17 16:23:00,
2013-03-17 12:28:00,27.0,13.8,30.16,NW,324,8.1,10.5,57,0.00,,SCT270,0.00,VWS V14.01,2013-03-17 16:28:00,
2013-03-17 12:34:00,27.5,14.3,30.16,NNW,331,8.1,10.5,57,0.00,,BKN270,0.00,VWS V14.01,2013-03-17 16:34:00,
2013-03-17 12:39:00,27.7,14.9,30.13,North,1,8.3,11.0,58,0.00,,BKN270,0.00,VWS V14.01,2013-03-17 16:39:00,
2013-03-17 12:44:00,27.0,15.3,30.13,North,357,12.8,12.8,61,0.00,,BKN270,0.00,VWS V14.01,2013-03-17 16:44:00,
2013-03-17 12:49:00,26.2,15.7,30.13,North,0,8.7,13.2,64,0.00,,BKN270,0.00,VWS V14.01,2013-03-17 16:49:00,
2013-03-17 12:54:00,25.7,15.2,30.16,NNW,338,8.7,12.3,64,0.00,,BKN270,0.00,VWS V14.01,2013-03-17 16:54:00,
2013-03-17 12:59:00,26.1,15.6,30.16,NNW,337,6.3,8.7,64,0.00,,BKN270,0.00,VWS V14.01,2013-03-17 16:59:00,
2013-03-17 13:04:00,27.0,16.8,30.16,North,357,11.4,11.4,65,0.00,,BKN270,0.00,VWS V14.01,2013-03-17 17:04:00,
2013-03-17 13:09:00,26.6,16.8,30.16,NNW,336,6.3,8.7,66,0.00,,BKN270,0.00,VWS V14.01,2013-03-17 17:09:00,
2013-03-17 13:14:00,27.0,17.5,30.16,North,0,9.6,13.2,67,0.00,,BKN270,0.00,VWS V14.01,2013-03-17 17:14:00,
2013-03-17 13:20:00,26.8,17.6,30.16,North,353,10.5,13.2,68,0.00,,BKN270,0.00,VWS V14.01,2013-03-17 17:20:00,
2013-03-17 13:25:00,27.0,17.5,30.16,North,353,8.1,11.0,67,0.00,,BKN270,0.00,VWS V14.01,2013-03-17 17:25:00,
2013-03-17 13:30:00,27.0,16.8,30.16,NNW,339,12.8,12.8,65,0.00,,BKN270,0.00,VWS V14.01,2013-03-17 17:30:00,
2013-03-17 13:35:00,27.3,16.4,30.16,North,5,4.9,12.8,63,0.00,,,0.00,VWS V14.01,2013-03-17 17:35:00,
2013-03-17 13:40:00,27.9,17.3,30.16,North,350,5.4,8.3,64,0.00,,,0.00,VWS V14.01,2013-03-17 17:40:00,
2013-03-17 13:45:00,27.0,17.1,30.16,North,357,10.5,12.3,66,0.00,,,0.00,VWS V14.01,2013-03-17 17:45:00,
2013-03-17 13:50:00,27.1,17.3,30.16,NNW,332,8.1,11.0,66,0.00,,,0.00,VWS V14.01,2013-03-17 17:50:00,
2013-03-17 13:55:00,27.0,16.8,30.16,NNW,334,10.1,12.8,65,0.00,,,0.00,VWS V14.01,2013-03-17 17:55:00,
2013-03-17 14:00:00,26.2,15.4,30.16,North,353,10.5,12.8,63,0.00,,,0.00,VWS V14.01,2013-03-17 18:00:00,
2013-03-17 14:05:00,27.0,16.4,30.16,North,0,8.7,12.3,64,0.00,,,0.00,VWS V14.01,2013-03-17 18:05:00,
2013-03-17 14:10:00,26.8,15.5,30.16,North,0,7.6,12.3,62,0.00,,,0.00,VWS V14.01,2013-03-17 18:10:00,
2013-03-17 14:16:00,26.6,15.4,30.16,North,357,8.1,12.3,62,0.00,,,0.00,VWS V14.01,2013-03-17 18:16:00,
2013-03-17 14:21:00,26.8,15.1,30.16,North,353,8.1,9.6,61,0.00,,,0.00,VWS V14.01,2013-03-17 18:21:00,
2013-03-17 14:26:00,27.0,14.9,30.16,North,0,5.8,10.5,60,0.00,,,0.00,VWS V14.01,2013-03-17 18:26:00,
2013-03-17 14:31:00,27.0,14.9,30.16,North,357,4.9,8.7,60,0.00,,,0.00,VWS V14.01,2013-03-17 18:31:00,
2013-03-17 14:36:00,27.0,13.8,30.16,WNW,298,8.1,10.1,57,0.00,,,0.00,VWS V14.01,2013-03-17 18:36:00,
2013-03-17 14:42:00,27.0,13.0,30.16,North,0,10.1,10.1,55,0.00,,,0.00,VWS V14.01,2013-03-17 18:42:00,
2013-03-17 14:47:00,27.0,12.6,30.16,NW,316,8.1,11.0,54,0.00,,,0.00,VWS V14.01,2013-03-17 18:47:00,
2013-03-17 14:52:00,27.0,11.7,30.16,NNW,331,8.7,10.1,52,0.00,,,0.00,VWS V14.01,2013-03-17 18:52:00,
2013-03-17 14:57:00,26.6,11.4,30.16,NNW,339,10.1,13.2,52,0.00,,,0.00,VWS V14.01,2013-03-17 18:57:00,
2013-03-17 15:02:00,26.4,11.2,30.16,North,357,5.8,8.3,52,0.00,,,0.00,VWS V14.01,2013-03-17 19:02:00,
2013-03-17 15:07:00,27.1,12.3,30.16,North,0,8.3,10.1,53,0.00,,,0.00,VWS V14.01,2013-03-17 19:07:00,
2013-03-17 15:12:00,27.7,12.4,30.16,WNW,291,6.3,8.1,52,0.00,,,0.00,VWS V14.01,2013-03-17 19:12:00,
2013-03-17 15:17:00,27.3,11.6,30.16,NNW,328,8.1,10.5,51,0.00,,,0.00,VWS V14.01,2013-03-17 19:17:00,
2013-03-17 15:22:00,27.9,12.5,30.16,North,357,8.1,9.6,52,0.00,,,0.00,VWS V14.01,2013-03-17 19:22:00,
2013-03-17 15:28:00,27.9,12.1,30.16,North,353,8.1,10.5,51,0.00,,,0.00,VWS V14.01,2013-03-17 19:28:00,
2013-03-17 15:33:00,27.9,11.6,30.16,NNW,338,7.6,13.2,50,0.00,,SCT046,0.00,VWS V14.01,2013-03-17 19:33:00,
2013-03-17 15:38:00,27.7,11.9,30.16,NNW,330,6.3,9.2,51,0.00,,SCT046,0.00,VWS V14.01,2013-03-17 19:38:00,
2013-03-17 15:43:00,27.1,10.5,30.16,NW,324,6.3,11.0,49,0.00,,SCT046,0.00,VWS V14.01,2013-03-17 19:43:00,
2013-03-17 15:48:00,27.1,10.1,30.16,WNW,301,11.0,11.0,48,0.00,,SCT046,0.00,VWS V14.01,2013-03-17 19:48:00,
2013-03-17 15:53:00,27.1,10.1,30.16,NNW,338,8.1,13.2,48,0.00,,SCT046,0.00,VWS V14.01,2013-03-17 19:53:00,
2013-03-17 15:58:00,27.3,10.7,30.16,NW,312,8.7,9.2,49,0.00,,SCT046,0.00,VWS V14.01,2013-03-17 19:58:00,
2013-03-17 16:03:00,27.3,10.2,30.16,NW,309,11.9,11.9,48,0.00,,SCT046,0.00,VWS V14.01,2013-03-17 20:03:00,
2013-03-17 16:08:00,26.8,9.3,30.16,NE,36,5.8,10.5,47,0.00,,SCT046,0.00,VWS V14.01,2013-03-17 20:08:00,
2013-03-17 16:14:00,26.8,9.7,30.16,North,0,8.7,8.7,48,0.00,,SCT046,0.00,VWS V14.01,2013-03-17 20:14:00,
2013-03-17 16:19:00,27.0,9.9,30.16,North,349,7.2,8.1,48,0.00,,SCT046,0.00,VWS V14.01,2013-03-17 20:19:00,
2013-03-17 16:24:00,27.0,9.4,30.16,North,0,5.4,12.8,47,0.00,,SCT046,0.00,VWS V14.01,2013-03-17 20:24:00,
2013-03-17 16:29:00,26.6,9.1,30.16,NNW,342,8.7,12.8,47,0.00,,SCT046,0.00,VWS V14.01,2013-03-17 20:29:00,
2013-03-17 16:34:00,26.8,9.3,30.16,North,0,8.7,13.2,47,0.00,,SCT046,0.00,VWS V14.01,2013-03-17 20:34:00,
2013-03-17 16:39:00,26.6,9.1,30.16,NNW,339,5.4,8.1,47,0.00,,SCT046,0.00,VWS V14.01,2013-03-17 20:39:00,
2013-03-17 16:44:00,26.6,8.1,30.16,WNW,287,7.6,10.5,45,0.00,,SCT046,0.00,VWS V14.01,2013-03-17 20:44:00,
2013-03-17 16:49:00,26.4,8.5,30.16,WNW,291,9.2,9.2,46,0.00,,SCT046,0.00,VWS V14.01,2013-03-17 20:49:00,
2013-03-17 16:55:00,26.4,8.5,30.16,North,0,4.5,10.1,46,0.00,,SCT046,0.00,VWS V14.01,2013-03-17 20:55:00,
2013-03-17 17:00:00,26.4,8.0,30.16,NNW,339,5.4,11.0,45,0.00,,SCT046,0.00,VWS V14.01,2013-03-17 21:00:00,
2013-03-17 17:05:00,26.2,7.8,30.16,North,2,8.1,10.5,45,0.00,,FEW036,0.00,VWS V14.01,2013-03-17 21:05:00,
2013-03-17 17:10:00,26.2,7.8,30.19,NNW,344,12.3,12.3,45,0.00,,FEW036,0.00,VWS V14.01,2013-03-17 21:10:00,
2013-03-17 17:15:00,26.1,7.2,30.19,NW,318,4.0,12.3,44,0.00,,FEW036,0.00,VWS V14.01,2013-03-17 21:15:00,
2013-03-17 17:20:00,25.9,6.5,30.19,NNW,333,8.1,8.1,43,0.00,,FEW036,0.00,VWS V14.01,2013-03-17 21:20:00,
2013-03-17 17:25:00,25.9,6.5,30.19,NNW,345,5.4,5.8,43,0.00,,FEW036,0.00,VWS V14.01,2013-03-17 21:25:00,
2013-03-17 17:30:00,25.9,7.0,30.19,North,357,7.6,8.3,44,0.00,,FEW036,0.00,VWS V14.01,2013-03-17 21:30:00,
2013-03-17 17:35:00,25.7,6.8,30.19,North,353,8.3,10.1,44,0.00,,SCT230,0.00,VWS V14.01,2013-03-17 21:35:00,
2013-03-17 17:40:00,25.5,6.7,30.19,NNW,329,5.4,10.5,44,0.00,,SCT230,0.00,VWS V14.01,2013-03-17 21:40:00,
2013-03-17 17:45:00,25.3,6.5,30.19,NNW,327,8.1,10.5,44,0.00,,SCT230,0.00,VWS V14.01,2013-03-17 21:45:00,
2013-03-17 17:51:00,25.3,6.5,30.19,NW,316,5.4,8.3,44,0.00,,SCT230,0.00,VWS V14.01,2013-03-17 21:51:00,
2013-03-17 17:56:00,25.3,6.5,30.19,NNW,339,7.6,9.2,44,0.00,,SCT230,0.00,VWS V14.01,2013-03-17 21:56:00,
2013-03-17 18:01:00,25.2,6.3,30.19,NNW,340,6.3,6.3,44,0.00,,SCT230,0.00,VWS V14.01,2013-03-17 22:01:00,
2013-03-17 18:06:00,25.0,6.2,30.19,North,357,5.8,8.3,44,0.00,,SCT230,0.00,VWS V14.01,2013-03-17 22:06:00,
2013-03-17 18:11:00,25.0,6.2,30.19,NNW,344,4.9,6.3,44,0.00,,SCT230,0.00,VWS V14.01,2013-03-17 22:11:00,
2013-03-17 18:16:00,24.8,6.0,30.19,North,0,5.4,8.7,44,0.00,,SCT230,0.00,VWS V14.01,2013-03-17 22:16:00,
2013-03-17 18:21:00,24.8,6.0,30.19,North,353,5.8,5.8,44,0.00,,SCT230,0.00,VWS V14.01,2013-03-17 22:21:00,
2013-03-17 18:26:00,24.6,5.8,30.19,NW,312,6.3,7.6,44,0.00,,SCT230,0.00,VWS V14.01,2013-03-17 22:26:00,
2013-03-17 18:31:00,24.4,5.7,30.19,NNW,344,7.2,8.7,44,0.00,,SCT230,0.00,VWS V14.01,2013-03-17 22:31:00,
2013-03-17 18:36:00,24.3,5.5,30.19,SSW,197,4.0,4.0,44,0.00,,SCT250,0.00,VWS V14.01,2013-03-17 22:36:00,
2013-03-17 18:41:00,24.3,5.5,30.19,North,353,5.4,5.8,44,0.00,,SCT250,0.00,VWS V14.01,2013-03-17 22:41:00,
2013-03-17 18:46:00,24.1,5.8,30.19,North,353,4.0,4.0,45,0.00,,SCT250,0.00,VWS V14.01,2013-03-17 22:46:00,
2013-03-17 18:52:00,23.9,5.2,30.19,North,353,7.6,8.3,44,0.00,,SCT250,0.00,VWS V14.01,2013-03-17 22:52:00,
2013-03-17 18:57:00,23.7,5.0,30.19,NNW,338,4.5,5.4,44,0.00,,SCT250,0.00,VWS V14.01,2013-03-17 22:57:00,
2013-03-17 19:02:00,23.7,5.5,30.19,North,1,4.0,5.8,45,0.00,,SCT250,0.00,VWS V14.01,2013-03-17 23:02:00,
2013-03-17 19:07:00,23.7,5.5,30.19,North,357,4.9,4.9,45,0.00,,SCT250,0.00,VWS V14.01,2013-03-17 23:07:00,
2013-03-17 19:12:00,23.4,5.2,30.19,North,5,5.4,5.8,45,0.00,,SCT250,0.00,VWS V14.01,2013-03-17 23:12:00,
2013-03-17 19:17:00,23.4,5.2,30.19,North,357,6.3,6.3,45,0.00,,SCT250,0.00,VWS V14.01,2013-03-17 23:17:00,
2013-03-17 19:22:00,23.2,5.0,30.22,North,4,4.0,6.3,45,0.00,,SCT250,0.00,VWS V14.01,2013-03-17 23:22:00,
2013-03-17 19:27:00,23.0,4.8,30.22,North,0,6.3,6.3,45,0.00,,SCT250,0.00,VWS V14.01,2013-03-17 23:27:00,
2013-03-17 19:32:00,22.8,5.2,30.22,NNE,27,4.9,7.2,46,0.00,,SCT240,0.00,VWS V14.01,2013-03-17 23:32:00,
2013-03-17 19:37:00,22.8,5.2,30.22,North,357,4.9,5.8,46,0.00,,SCT240,0.00,VWS V14.01,2013-03-17 23:37:00,
2013-03-17 19:42:00,22.8,5.2,30.22,North,2,2.7,3.6,46,0.00,,SCT240,0.00,VWS V14.01,2013-03-17 23:42:00,
2013-03-17 19:47:00,22.5,4.8,30.22,North,0,3.6,3.6,46,0.00,,SCT240,0.00,VWS V14.01,2013-03-17 23:47:00,
2013-03-17 19:52:00,22.3,4.7,30.22,North,3,4.0,4.0,46,0.00,,SCT240,0.00,VWS V14.01,2013-03-17 23:52:00,
2013-03-17 19:58:00,22.1,4.5,30.22,North,357,2.7,4.0,46,0.00,,SCT240,0.00,VWS V14.01,2013-03-17 23:58:00,
2013-03-17 20:03:00,21.9,4.3,30.22,North,0,3.6,4.0,46,0.00,,SCT240,0.00,VWS V14.01,2013-03-18 00:03:00,
2013-03-17 20:08:00,21.9,4.3,30.22,North,357,3.6,6.3,46,0.00,,SCT240,0.00,VWS V14.01,2013-03-18 00:08:00,
2013-03-17 20:13:00,21.9,4.3,30.22,North,4,3.6,4.9,46,0.00,,SCT240,0.00,VWS V14.01,2013-03-18 00:13:00,
2013-03-17 20:18:00,21.7,4.2,30.22,North,5,2.7,5.8,46,0.00,,SCT240,0.00,VWS V14.01,2013-03-18 00:18:00,
2013-03-17 20:23:00,21.9,4.3,30.22,North,4,4.0,4.9,46,0.00,,SCT240,0.00,VWS V14.01,2013-03-18 00:23:00,
2013-03-17 20:28:00,21.6,4.0,30.22,NNE,21,2.7,4.0,46,0.00,,SCT240,0.00,VWS V14.01,2013-03-18 00:28:00,
2013-03-17 20:33:00,21.6,4.0,30.22,NNE,14,2.7,3.1,46,0.00,,FEW200,0.00,VWS V14.01,2013-03-18 00:33:00,
2013-03-17 20:38:00,21.4,3.8,30.22,NNE,13,3.1,4.0,46,0.00,,FEW200,0.00,VWS V14.01,2013-03-18 00:38:00,
2013-03-17 20:43:00,21.2,4.1,30.22,North,357,3.1,5.4,47,0.00,,FEW200,0.00,VWS V14.01,2013-03-18 00:43:00,
2013-03-17 20:49:00,21.0,4.0,30.22,North,357,3.1,4.0,47,0.00,,FEW200,0.00,VWS V14.01,2013-03-18 00:49:00,
2013-03-17 20:54:00,21.2,4.1,30.22,North,6,3.1,4.9,47,0.00,,FEW200,0.00,VWS V14.01,2013-03-18 00:54:00,
2013-03-17 20:59:00,21.2,4.1,30.22,NNE,18,2.7,3.6,47,0.00,,FEW200,0.00,VWS V14.01,2013-03-18 00:59:00,
2013-03-17 21:04:00,21.2,4.1,30.22,NNE,20,2.7,3.6,47,0.00,,FEW200,0.00,VWS V14.01,2013-03-18 01:04:00,
2013-03-17 21:09:00,21.0,4.4,30.22,NNE,27,2.7,3.6,48,0.00,,FEW200,0.00,VWS V14.01,2013-03-18 01:09:00,
2013-03-17 21:14:00,20.7,4.1,30.22,NE,34,4.9,4.9,48,0.00,,FEW200,0.00,VWS V14.01,2013-03-18 01:14:00,
2013-03-17 21:19:00,20.8,4.2,30.22,NNE,32,2.7,5.8,48,0.00,,FEW200,0.00,VWS V14.01,2013-03-18 01:19:00,
2013-03-17 21:24:00,21.0,4.0,30.22,NE,34,2.7,4.0,47,0.00,,FEW200,0.00,VWS V14.01,2013-03-18 01:24:00,
2013-03-17 21:29:00,20.8,3.8,30.22,NE,34,0.0,3.6,47,0.00,,FEW200,0.00,VWS V14.01,2013-03-18 01:29:00,
2013-03-17 21:34:00,20.3,3.8,30.22,NE,34,2.2,2.7,48,0.00,,FEW200,0.00,VWS V14.01,2013-03-18 01:34:00,
2013-03-17 21:39:00,19.6,3.1,30.22,NE,34,0.0,0.0,48,0.00,,FEW200,0.00,VWS V14.01,2013-03-18 01:39:00,
2013-03-17 21:44:00,19.2,3.2,30.22,NE,34,0.0,0.0,49,0.00,,FEW200,0.00,VWS V14.01,2013-03-18 01:44:00,
2013-03-17 21:49:00,19.4,3.8,30.22,NE,34,0.0,0.0,50,0.00,,FEW200,0.00,VWS V14.01,2013-03-18 01:49:00,
2013-03-17 21:54:00,19.4,3.8,30.25,NE,34,0.0,0.0,50,0.00,,FEW200,0.00,VWS V14.01,2013-03-18 01:54:00,
2013-03-17 21:59:00,19.2,4.1,30.25,NE,34,0.0,0.0,51,0.00,,FEW200,0.00,VWS V14.01,2013-03-18 01:59:00,
2013-03-17 22:04:00,19.4,4.2,30.25,NE,34,0.0,0.0,51,0.00,,FEW200,0.00,VWS V14.01,2013-03-18 02:04:00,
2013-03-17 22:09:00,18.9,3.3,30.25,NE,34,0.0,0.0,50,0.00,,FEW200,0.00,VWS V14.01,2013-03-18 02:09:00,
2013-03-17 22:14:00,17.8,2.7,30.25,NE,34,0.0,0.0,51,0.00,,FEW200,0.00,VWS V14.01,2013-03-18 02:14:00,
2013-03-17 22:19:00,17.2,2.7,30.25,NE,34,0.0,0.0,52,0.00,,FEW200,0.00,VWS V14.01,2013-03-18 02:19:00,
2013-03-17 22:24:00,17.2,3.1,30.25,NE,34,0.0,0.0,53,0.00,,FEW200,0.00,VWS V14.01,2013-03-18 02:24:00,
2013-03-17 22:30:00,16.7,2.5,30.25,NE,34,0.0,0.0,53,0.00,,FEW200,0.00,VWS V14.01,2013-03-18 02:30:00,
2013-03-17 22:35:00,16.5,2.8,30.25,NE,34,0.0,0.0,54,0.00,,CLR,0.00,VWS V14.01,2013-03-18 02:35:00,
2013-03-17 22:40:00,16.5,2.8,30.25,NNE,33,0.0,0.0,54,0.00,,CLR,0.00,VWS V14.01,2013-03-18 02:40:00,
2013-03-17 22:45:00,16.2,2.8,30.25,NNE,33,0.0,0.0,55,0.00,,CLR,0.00,VWS V14.01,2013-03-18 02:45:00,
2013-03-17 22:50:00,16.0,2.7,30.25,NE,34,0.0,0.0,55,0.00,,CLR,0.00,VWS V14.01,2013-03-18 02:50:00,
2013-03-17 22:55:00,16.2,2.8,30.25,NE,34,0.0,0.0,55,0.00,,CLR,0.00,VWS V14.01,2013-03-18 02:55:00,
2013-03-17 23:00:00,15.8,2.5,30.25,NE,34,0.0,0.0,55,0.00,,CLR,0.00,VWS V14.01,2013-03-18 03:00:00,
2013-03-17 23:05:00,16.0,2.7,30.25,NE,34,0.0,0.0,55,0.00,,CLR,0.00,VWS V14.01,2013-03-18 03:05:00,
2013-03-17 23:10:00,15.4,2.6,30.25,NE,34,0.0,0.0,56,0.00,,CLR,0.00,VWS V14.01,2013-03-18 03:10:00,
2013-03-17 23:15:00,15.3,2.4,30.25,NE,34,0.0,0.0,56,0.00,,CLR,0.00,VWS V14.01,2013-03-18 03:15:00,
2013-03-17 23:20:00,15.1,2.6,30.25,NE,34,0.0,0.0,57,0.00,,CLR,0.00,VWS V14.01,2013-03-18 03:20:00,
2013-03-17 23:25:00,15.3,3.2,30.25,NE,34,0.0,0.0,58,0.00,,CLR,0.00,VWS V14.01,2013-03-18 03:25:00,
2013-03-17 23:30:00,15.3,3.2,30.25,NNE,33,0.0,0.0,58,0.00,,CLR,0.00,VWS V14.01,2013-03-18 03:30:00,
2013-03-17 23:35:00,15.3,3.2,30.25,NE,34,0.0,0.0,58,0.00,,CLR,0.00,VWS V14.01,2013-03-18 03:35:00,
2013-03-17 23:40:00,16.0,3.5,30.25,NE,34,0.0,0.0,57,0.00,,CLR,0.00,VWS V14.01,2013-03-18 03:40:00,
2013-03-17 23:45:00,15.4,2.9,30.25,NE,34,0.0,0.0,57,0.00,,CLR,0.00,VWS V14.01,2013-03-18 03:45:00,
2013-03-17 23:50:00,15.6,3.1,30.25,NE,34,0.0,0.0,57,0.00,,CLR,0.00,VWS V14.01,2013-03-18 03:50:00,
2013-03-17 23:55:00,15.4,2.9,30.25,NNE,33,0.0,0.0,57,0.00,,CLR,0.00,VWS V14.01,2013-03-18 03:55:00,